Regional Weather Roundup
Issued by NWS

Home | Current Version | Previous Version | Text Only | Print | Product List | Glossary On
Versions: 1 2 3 4 5 6 7 8 9 10 11 12 13 14 15 16 17 18 19 20 21 22 23 24 25 26 27 28 29 30 31 32 33 34 35 36 37 38 39 40 41 42 43 44 45 46 47 48 49 50
000
ASCA42 TJSJ 041410
RWRPR
PUERTO RICO/U.S. VIRGIN ISLANDS HOURLY WEATHER ROUNDUP
NATIONAL WEATHER SERVICE SAN JUAN PR
1000 AM AST TUE AUG 04 2015

PRZ001-004-041500-
PUERTO RICO

CITY           SKY/WX    TMP DP  RH WIND       PRES   REMARKS
SAN JUAN LMM   MOSUNNY   88  75  66 E15G22    30.08S HX  97
PONCE          MOSUNNY   90  75  62 SE219     30.00F HX 100
AGUADILLA      PTSUNNY   84  73  70 E17G24    30.10R HX  91
$$

PRZ006-007-041500-
U.S. VIRGIN ISLANDS

CITY           SKY/WX    TMP DP  RH WIND       PRES   REMARKS
CHARLOTTE AMA  MOSUNNY   91  72  52 E17G23    30.07S HX  98
CHRISTIANSTED  MOSUNNY   88  73  62 E17       30.07S HX  96
$$

HOURLY WEATHER ROUNDUP FOR THE NEWS MEDIA

CITY           SKY/WX    TMP DP  RH WIND       PRES   REMARKS
ORLANDO        MOSUNNY   83  74  74 S12       30.06S
NEW YORK       MOSUNNY   80  64  58 SW12      29.87R
NEWARK         MOSUNNY   80  67  64 SW12      29.85S
CHICAGO        PTSUNNY   73  56  54 SW3       29.97R
HARTFORD       MOSUNNY   76  67  73 SW10      29.86S
BOSTON         PTSUNNY   78  68  71 S9        29.84F
DALLAS         PTSUNNY   85  69  58 SW5       29.96R
PHILADELPHIA   MOSUNNY   82  65  56 SW14      29.90R
LOS ANGELES    PTCLDY    68  65  90 S3        29.90R
WASHINGTON DC  MOSUNNY   79  65  62 S5        29.95R



USA.gov is the U.S. government's official web portal to all federal, state and local government web resources and services.